BAW171 EGLL-VVTS

Flight info

Callsign BAW171
Flight time N/A
Altitude 31000
Route DET L6 DVR L9 KONAN UL607 MATUG DCT GUBAX DCT BOREP DCT ENITA DCT PEPIK DCT AMRAX DCT NARKA DCT RULES DCT ELROM DCT MOBRA DCT IDARU/N0490F330 DCT DINRO N743 UDROS UM859 KARDE UL851 TBN UM11 REBLO DCT MATAL T916 SUBUT T923 ERLEV M11 RODAR A909 NINOP/N0489F350 B801 RANAH L750 MERUN G452 LKN R460 CEA L507 SUMSU/N0494F370 L507 BKK N506 ELMOP R468 SAPEN SAPEN5B
Aircraft B77W/H-SDE1E2E3FGHIJ2J3J4J5M1RWXY/LB1D1

Departure

Time 2026-05-03 20:15
Airport London Heathrow Airport (EGLL)

Arrival

Time N/A
Airport Tan Son Nhat International Airport (VVTS)
Time Latitude Longitude Altitude Speed Heading
2026-05-03 20:15 51.31741 -0.19359 6033 ft 282 kts 95°
2026-05-03 20:15 51.31523 -0.16261 6546 ft 280 kts 99°
2026-05-03 20:15 51.31220 -0.13161 7193 ft 283 kts 100°
2026-05-03 20:15 51.30902 -0.10030 7831 ft 287 kts 100°
2026-05-03 20:16 51.30583 -0.06868 8486 ft 289 kts 100°
2026-05-03 20:16 51.30267 -0.03686 9123 ft 292 kts 100°
2026-05-03 20:16 51.29951 -0.00460 9745 ft 296 kts 100°
2026-05-03 20:16 51.29637 0.02785 10261 ft 302 kts 100°
2026-05-03 20:17 51.29305 0.06209 10421 ft 322 kts 100°
2026-05-03 20:17 51.28953 0.09861 10603 ft 342 kts 100°
2026-05-03 20:17 51.28581 0.13728 10768 ft 363 kts 100°
2026-05-03 20:17 51.28192 0.17795 11167 ft 375 kts 100°
2026-05-03 20:18 51.27793 0.21960 11727 ft 383 kts 100°
2026-05-03 20:18 51.27387 0.26195 12482 ft 387 kts 100°
2026-05-03 20:18 51.26975 0.30470 13228 ft 391 kts 101°
2026-05-03 20:18 51.26559 0.34775 13929 ft 395 kts 101°
2026-05-03 20:19 51.26134 0.39151 14561 ft 399 kts 101°
2026-05-03 20:19 51.25706 0.43548 15189 ft 403 kts 101°
2026-05-03 20:19 51.25275 0.47946 15805 ft 407 kts 101°
2026-05-03 20:19 51.24836 0.52414 16430 ft 410 kts 101°
2026-05-03 20:20 51.24389 0.56940 17037 ft 414 kts 101°
2026-05-03 20:20 51.23937 0.61497 17646 ft 418 kts 101°
2026-05-03 20:20 51.23477 0.66118 18251 ft 422 kts 101°
2026-05-03 20:20 51.23012 0.70766 18776 ft 426 kts 101°
2026-05-03 20:21 51.22542 0.75448 19309 ft 429 kts 101°
2026-05-03 20:21 51.22067 0.80159 19839 ft 432 kts 101°
2026-05-03 20:21 51.21586 0.84913 20349 ft 436 kts 102°
2026-05-03 20:21 51.21099 0.89697 20828 ft 439 kts 102°
2026-05-03 20:22 51.20608 0.94506 21341 ft 442 kts 102°
2026-05-03 20:22 51.20109 0.99378 21845 ft 446 kts 102°
2026-05-03 20:22 51.19603 1.04293 22338 ft 449 kts 102°
2026-05-03 20:22 51.19098 1.09172 22813 ft 453 kts 102°
2026-05-03 20:23 51.18581 1.14153 23278 ft 456 kts 102°
2026-05-03 20:23 51.18060 1.19159 23719 ft 459 kts 102°
2026-05-03 20:23 51.17531 1.24215 24128 ft 462 kts 102°
2026-05-03 20:23 51.17001 1.29265 24547 ft 464 kts 103°
2026-05-03 20:24 51.16464 1.34361 24978 ft 466 kts 103°
2026-05-03 20:24 51.16064 1.39491 25373 ft 470 kts 98°
2026-05-03 20:24 51.15818 1.44704 25751 ft 473 kts 97°
2026-05-03 20:24 51.15589 1.49889 26110 ft 476 kts 98°
2026-05-03 20:25 51.15353 1.55167 26477 ft 478 kts 98°
2026-05-03 20:25 51.15107 1.60454 26839 ft 480 kts 98°
2026-05-03 20:25 51.14850 1.65771 27195 ft 482 kts 98°
2026-05-03 20:25 51.14585 1.71101 27537 ft 485 kts 99°
2026-05-03 20:26 51.14314 1.76476 27852 ft 487 kts 99°
2026-05-03 20:26 51.14038 1.81873 28176 ft 490 kts 99°
2026-05-03 20:26 51.13759 1.87297 28476 ft 492 kts 99°
2026-05-03 20:26 51.13479 1.92741 28768 ft 494 kts 99°
2026-05-03 20:27 51.13194 1.98200 29035 ft 497 kts 99°
2026-05-03 20:27 51.12904 2.03698 29300 ft 499 kts 100°
2026-05-03 20:27 51.12611 2.09211 29548 ft 501 kts 100°
2026-05-03 20:27 51.12314 2.14745 29806 ft 502 kts 100°
2026-05-03 20:28 51.12015 2.20288 30121 ft 502 kts 100°
2026-05-03 20:28 51.11715 2.25824 30403 ft 502 kts 100°
2026-05-03 20:28 51.11412 2.31359 30648 ft 502 kts 100°
2026-05-03 20:28 51.11106 2.36903 30834 ft 504 kts 100°
2026-05-03 20:29 51.10798 2.42402 30874 ft 507 kts 100°
2026-05-03 20:29 51.10170 2.53561 30913 ft 504 kts 100°
2026-05-03 20:30 51.09453 2.64609 30927 ft 499 kts 105°
2026-05-03 20:30 51.07788 2.75209 30948 ft 492 kts 112°
2026-05-03 20:31 51.05835 2.85580 30935 ft 493 kts 112°
2026-05-03 20:31 51.03889 2.96063 30931 ft 495 kts 112°
2026-05-03 20:32 51.01956 3.06596 30933 ft 497 kts 112°
2026-05-03 20:32 51.00013 3.17152 30920 ft 498 kts 112°
2026-05-03 20:33 50.98052 3.27736 30917 ft 499 kts 112°
2026-05-03 20:33 50.96079 3.38312 30914 ft 500 kts 112°
2026-05-03 20:34 50.94094 3.48893 30919 ft 501 kts 112°
2026-05-03 20:34 50.92098 3.59488 30923 ft 501 kts 112°
2026-05-03 20:35 50.90081 3.70068 30928 ft 502 kts 112°
2026-05-03 20:35 50.88045 3.80566 30931 ft 502 kts 112°
2026-05-03 20:36 50.85983 3.91145 30928 ft 503 kts 112°
2026-05-03 20:36 50.83911 4.01737 30941 ft 504 kts 113°
2026-05-03 20:37 50.81827 4.12338 30943 ft 505 kts 113°
2026-05-03 20:37 50.79729 4.22957 30954 ft 505 kts 113°
2026-05-03 20:38 50.77622 4.33560 30959 ft 506 kts 113°
2026-05-03 20:38 50.75498 4.44189 30956 ft 507 kts 113°
2026-05-03 20:39 50.73379 4.54748 30959 ft 508 kts 113°
2026-05-03 20:39 50.71251 4.65392 30954 ft 508 kts 112°
2026-05-03 20:40 50.69190 4.76058 30955 ft 509 kts 112°
2026-05-03 20:40 50.67119 4.86726 30950 ft 508 kts 112°
2026-05-03 20:41 50.65003 4.97384 30955 ft 508 kts 112°
2026-05-03 20:41 50.62841 5.07899 30961 ft 508 kts 113°
2026-05-03 20:42 50.60650 5.18487 30962 ft 508 kts 113°
2026-05-03 20:42 50.58461 5.29067 30963 ft 508 kts 112°
2026-05-03 20:43 50.56263 5.39653 30966 ft 509 kts 113°
2026-05-03 20:43 50.54056 5.50227 30972 ft 509 kts 113°
2026-05-03 20:44 50.51840 5.60815 30968 ft 509 kts 112°
2026-05-03 20:44 50.50250 5.71656 30976 ft 514 kts 104°
2026-05-03 20:45 50.48889 5.82691 30969 ft 514 kts 105°
2026-05-03 20:45 50.47452 5.93691 30966 ft 515 kts 106°
2026-05-03 20:46 50.46234 6.02889 30974 ft 521 kts 106°
2026-05-03 20:46 50.44753 6.14092 30968 ft 526 kts 105°
2026-05-03 20:47 50.43263 6.25338 30967 ft 527 kts 106°
2026-05-03 20:47 50.41765 6.36597 30960 ft 527 kts 105°
2026-05-03 20:48 50.40778 6.48016 30962 ft 528 kts 100°
2026-05-03 20:48 50.39950 6.59427 30955 ft 526 kts 100°
2026-05-03 20:49 50.39093 6.70800 30967 ft 524 kts 101°
2026-05-03 20:49 50.38201 6.82124 30978 ft 523 kts 101°
2026-05-03 20:50 50.37296 6.93374 30978 ft 522 kts 101°
2026-05-03 20:50 50.36381 7.04640 30998 ft 521 kts 101°
2026-05-03 20:51 50.35456 7.15900 30998 ft 521 kts 101°
2026-05-03 20:51 50.34523 7.27154 30977 ft 520 kts 101°
2026-05-03 20:52 50.33586 7.38306 30985 ft 519 kts 101°
2026-05-03 20:52 50.32633 7.49503 30987 ft 517 kts 101°
2026-05-03 20:53 50.31675 7.60639 30993 ft 516 kts 102°
2026-05-03 20:53 50.30709 7.71755 30961 ft 515 kts 102°
2026-05-03 20:54 50.29735 7.82829 30992 ft 513 kts 102°
2026-05-03 20:54 50.28180 7.99382 30986 ft 511 kts 104°
2026-05-03 20:55 50.26975 8.10266 30981 ft 510 kts 104°
2026-05-03 20:55 50.25747 8.21195 30992 ft 510 kts 104°
2026-05-03 20:56 50.24534 8.32115 30999 ft 510 kts 104°
2026-05-03 20:56 50.23323 8.43031 31004 ft 510 kts 104°
2026-05-03 20:57 50.22099 8.53968 31004 ft 510 kts 104°
2026-05-03 20:57 50.20875 8.64806 31006 ft 510 kts 104°
2026-05-03 20:58 50.19632 8.75711 31005 ft 510 kts 104°
2026-05-03 20:58 50.18379 8.86605 31001 ft 510 kts 104°
2026-05-03 20:59 50.17116 8.97486 30993 ft 509 kts 104°
2026-05-03 20:59 50.15842 9.08379 30982 ft 509 kts 104°
2026-05-03 21:00 50.14778 9.17396 30987 ft 509 kts 104°
2026-05-03 21:00 50.13279 9.30002 30983 ft 509 kts 104°
2026-05-03 21:01 50.11978 9.40849 30986 ft 508 kts 104°
2026-05-03 21:01 50.10667 9.51689 31000 ft 508 kts 104°
2026-05-03 21:02 50.09346 9.62501 30992 ft 508 kts 104°